Flag for Moldova Weather past 2 weeks in Chisinau, Moldova

Now
36 °F

Light rain. Fog.


Feels Like: 33 °F
Forecast: 31 / 41 °F
Wind: 3 mph from Northwest

Location: Chisinau International Airport

Current Time: Feb 2, 2015 at 12:12:28 AM

Latest Report: Feb 1, 2015 at 11:30 PM


Visibility: 2 mi

Pressure: 29.39 "Hg

Humidity: 87%

Dew point: 32 °F

Location of ChisinauLocation

Historic Weather in Chisinau — Graph

°F

Chisinau temperature yesterday

Maximum temperature yesterday: 39 °F (at 12:30 PM)
Minimum temperature yesterday: 32 °F (at 4:30 AM)
Average temperature yesterday: 36 °F

Past Weeks' High & Low Weather Summary

 TemperatureHumidityPressure
High52 °F (Jan 31, 3:30 PM)100% (Jan 23, 7:30 AM)30.18 "Hg (Jan 23, 7:30 AM)
Low27 °F (Jan 29, 8:30 AM)58% (Jan 31, 4:30 PM)29.03 "Hg (Jan 31, 7:00 AM)
Average36 °F87%29.89 "Hg
* Reported Jan 17 11:00 PM — Feb 1 11:00 PM, Chisinau, Weather by CustomWeather, © 2014

Note: Actual official high and low records may vary slightly from our data, if they occured in-between our weather recording intervals... More about our weather records

Advertising

Chisinau weather history for previous 24 hours

 ConditionsComfort  
Time TempWeatherWind HumidityBarometerVisibility
11:00 PM
Feb 1
36 °FLight rain. Mostly cloudy.5 mph87%29.36 "Hg6 mi
10:30 PM34 °FSprinkles. Low clouds.10 mph93%29.36 "Hg3 mi
10:00 PM36 °FSnow flurries. Mostly cloudy.12 mph87%29.33 "Hg6 mi
9:30 PM36 °FSprinkles. Passing clouds.10 mph87%29.33 "Hg5 mi
9:00 PM36 °FSprinkles. Mostly cloudy.7 mph87%29.30 "Hg4 mi
8:30 PM36 °FSprinkles. Mostly cloudy.6 mph87%29.30 "Hg3 mi
8:00 PM37 °FSprinkles. Mostly cloudy.6 mph87%29.30 "Hg4 mi
7:30 PM37 °FSprinkles. Mostly cloudy.9 mph87%29.27 "Hg4 mi
7:00 PM37 °FSprinkles. Mostly cloudy.8 mph87%29.27 "Hg4 mi
6:30 PM37 °FSprinkles. Mostly cloudy.7 mph87%29.24 "Hg4 mi
6:00 PM37 °FSprinkles. Low clouds.8 mph87%29.24 "Hg6 mi
5:30 PM37 °FSprinkles. Overcast.9 mph87%29.21 "Hg4 mi
5:00 PM39 °FSprinkles. Overcast.10 mph81%29.21 "HgN/A
4:30 PM39 °FSprinkles. Overcast.9 mph81%29.21 "HgN/A
4:00 PM39 °FMore clouds than sun.9 mph81%29.21 "HgN/A
3:30 PM39 °FOvercast.8 mph81%29.24 "HgN/A
3:00 PM39 °FMore clouds than sun.10 mph81%29.24 "HgN/A
2:30 PM39 °FLight rain. More clouds than sun.7 mph81%29.21 "HgN/A
2:00 PM39 °FLight rain. More clouds than sun.8 mph81%29.24 "HgN/A
1:30 PM39 °FLight rain. More clouds than sun.8 mph81%29.24 "HgN/A
1:00 PM39 °FLight rain. More clouds than sun.8 mph81%29.27 "HgN/A
12:30 PM39 °FMore clouds than sun.6 mph75%29.27 "HgN/A
12:00 PM37 °FMostly cloudy.7 mph81%29.27 "HgN/A
11:30 AM37 °FMostly cloudy.6 mph81%29.30 "HgN/A
11:00 AM37 °FMore clouds than sun.7 mph81%29.33 "HgN/A
10:30 AM37 °FMore clouds than sun.6 mph81%29.33 "Hg6 mi
10:00 AM36 °FMore clouds than sun.3 mph87%29.36 "Hg6 mi
9:30 AM36 °FFog.3 mph87%29.36 "Hg3 mi
9:00 AM36 °FMostly cloudy.6 mph81%29.39 "Hg6 mi
8:30 AM34 °FMostly cloudy.6 mph87%29.39 "Hg4 mi
8:00 AM34 °FFog.3 mph87%29.39 "Hg3 mi
7:30 AM34 °FPartly sunny.3 mph87%29.39 "Hg4 mi
7:00 AM34 °FPassing clouds.3 mph81%29.39 "Hg4 mi
6:30 AM32 °FClear.3 mph87%29.39 "Hg6 mi
6:00 AM32 °FClear.No wind87%29.39 "Hg5 mi
5:30 AM32 °FClear.No wind87%29.39 "Hg4 mi
5:00 AM34 °FClear.5 mph81%29.39 "Hg4 mi
4:30 AM32 °FClear.3 mph87%29.42 "Hg10 mi
4:00 AM34 °FClear.3 mph81%29.39 "Hg10 mi
3:30 AM34 °FClear.No wind81%29.42 "Hg10 mi
3:00 AM36 °FClear.No wind81%29.42 "Hg10 mi
2:30 AM36 °FClear.No wind81%29.45 "Hg10 mi
2:00 AM36 °FClear.2 mph81%29.45 "Hg10 mi
1:30 AM37 °FClear.No wind75%29.45 "Hg10 mi
1:00 AM37 °FClear.1 mph75%29.45 "Hg10 mi
12:30 AM36 °FClear.3 mph75%29.42 "Hg10 mi
12:00 AM37 °FClear.3 mph70%29.45 "Hg10 mi
Weather by CustomWeather, © 2014

See weather overviewHow to use our weather pages